Skip Page Navigation
NASA JPL Caltech
NASA Logo - Jet Propulsion Laboratory + View the NASA Portal
+ Near-Earth Object (NEO) Program
Search JPL
JPL Home Earth Solar System Stars & Galaxies Technology
JPL Solar System Dynamics
BODIES ORBITS EPHEMERIDES TOOLS PHYSICAL DATA DISCOVERY FAQ SITE MAP
JPL Small-Body Database Browser
Search: [ help ]  
157694 (2006 AY2)
Classification: Main-belt Asteroid          SPK-ID: 2157694
Ephemeris | Orbit Diagram | Orbital Elements | Physical Parameters | Discovery Circumstances ]

[ hide orbit diagram ]
Orbit Diagram
Note: Make sure you have Java enabled on your browser to see the applet. This applet is provided as a 3D orbit visualization tool. The applet was implemented using 2-body methods, and hence should not be used for determining accurate long-term trajectories (over several years or decades) or planetary encounter circumstances. For accurate long-term ephemerides, please instead use our Horizons system.
Orbit Viewer

Additional Notes: the orbits shown in the applet are color coded. The planets are white lines, and the asteroid/comet is a blue line. The bright white line indicates the portion of the orbit that is above the ecliptic plane, and the darker portion is below the ecliptic plane. Likewise for the asteroid/comet orbit, the light blue indicates the portion above the ecliptic plane, and the dark blue the portion below the ecliptic plane.

Orbit Viewer applet originally written and kindly provided by Osamu Ajiki (AstroArts), and further modified by Ron Baalke (JPL).


Orbital Elements at Epoch 2456400.5 (2013-Apr-18.0) TDB
Reference: MPO251318 (heliocentric ecliptic J2000)
 Element Value Uncertainty (1-sigma)   Units 
e 0.0980980 n/a  
a 3.1177043 n/a AU
q 2.8118637 n/a AU
i 17.34995 n/a deg
node 182.83564 n/a deg
peri 202.93309 n/a deg
M 222.38001 n/a deg
tp 2457169.1521169
(2015-May-26.65211690)
n/a JED
period 2010.7163361
5.51
n/a
n/a
d
yr
n 0.17904067 n/a deg/d
Q 3.4235449 n/a AU
  Orbit Determination Parameters
   # obs. used (total)      132  
   first obs. used      1998-??-??  
   last obs. used      2013-01-21  
   # oppositions      10  
   planetary ephem.      DE403  
   condition code      1  
   fit RMS      0.59  
   data source      MPC:mpu  
   producer      MPCLINUX  

Additional Information
 T_jup = 3.140 

Ephemeris | Orbit Diagram | Orbital Elements | Physical Parameters | Discovery Circumstances ]

Physical Parameter Table
Parameter Symbol Value Units Sigma Reference Notes
absolute magnitude H 15.2 mag n/a MPO251318  

157694 (2006 AY2)          Discovered 2006-Jan-05 by Calvin College at Rehoboth (G98)
Reference: 20070502/Numbers.arcLast Updated: 2007-05-02

Alternate Designations
 2006 AY2 = 1998 SJ155 
Ephemeris | Orbit Diagram | Orbital Elements | Physical Parameters | Discovery Circumstances ]
ABOUT SSD CREDITS/AWARDS PRIVACY/COPYRIGHT GLOSSARY LINKS
FirstGov 2013-May-22 03:39 UT
(server date/time)  
NASA Home Page
Site Manager:   Donald K. Yeomans
Webmaster  Alan B. Chamberlin